South Lake Tahoe, CA

3:32 PM PST on December 08, 2019 (GMT -0800)
Lake Tahoe

Weather History for KTVL - October, 2019

Change the Weather History Date:

Wednesday, October 23, 2019

  Actual Average Record
Temperature  
Mean Temperature 44 °F 44 °F  
Max Temperature 61 °F 60 °F 73 °F (2011)
Min Temperature 27 °F 27 °F 12 °F (1975)
Degree Days  
Heating Degree Days 21 22  
Month to date heating degree days 488 424  
Since 1 July heating degree days 1099 1050  
Cooling Degree Days 0 0  
Month to date cooling degree days 0 0  
Year to date cooling degree days 20 31  
Moisture  
Dew Point 23 °F    
Average Humidity 49    
Maximum Humidity 85    
Minimum Humidity 20    
Precipitation  
Precipitation 0.00 in - 0.85 in (1973)
Month to date precipitation T  
Year to date precipitation 18.02  
Sea Level Pressure  
Sea Level Pressure 30.25 in    
Wind  
Wind Speed 5 mph ()    
Max Wind Speed 21 mph    
Max Gust Speed 29 mph    
Visibility 10.0 miles    
Events      
T = Trace of Precipitation, MM = Missing Value Source: Averaged Metar Reports

Daily Weather History Graph

Daily Weather History Graph

Search for Another Location

Airport or City:

Astronomy

Oct. 23, 2019 Rise Set
Actual Time 7:17 AM PDT 6:10 PM PDT
Civil Twilight 6:50 AM PDT 6:37 PM PDT
Nautical Twilight 6:19 AM PDT 7:08 PM PDT
Astronomical Twilight 5:48 AM PDT 7:39 PM PDT
Moon 1:46 AM PDT (10/23) 4:00 PM PDT (10/23)
Length of Visible Light 11h 47m
Length of Day
10h 53m
Waning Crescent, 25% of the Moon is Illuminated
Oct 23
Waning Crescent
Oct 27
New
Nov 4
First Quarter
Nov 12
Full
Nov 19
Last Quarter

Hourly Weather History & Observations

Time (PDT) Temp. Windchill Dew Point Humidity Pressure Visibility Wind Dir Wind Speed Gust Speed Precip Events Conditions
12:53 AM 33.1 °F 27.7 °F 24.1 °F 70% 30.27 in 10.0 mi South 5.8 mph - N/A   Clear
1:53 AM 30.0 °F 24.1 °F 24.1 °F 79% 30.25 in 10.0 mi South 5.8 mph - N/A   Clear
2:53 AM 30.0 °F - 24.1 °F 79% 30.23 in 10.0 mi Calm Calm - N/A   Clear
3:53 AM 28.9 °F - 23.0 °F 78% 30.22 in 10.0 mi Calm Calm - N/A   Clear
4:53 AM 28.9 °F 23.9 °F 23.0 °F 78% 30.22 in 10.0 mi South 4.6 mph - N/A   Clear
5:53 AM 28.0 °F 24.2 °F 23.0 °F 81% 30.25 in 10.0 mi Variable 3.5 mph - N/A   Clear
6:53 AM 28.0 °F 21.7 °F 23.0 °F 81% 30.26 in 10.0 mi South 5.8 mph - N/A   Clear
7:53 AM 28.9 °F 23.9 °F 24.1 °F 82% 30.28 in 10.0 mi SSW 4.6 mph - N/A   Clear
8:53 AM 37.9 °F 35.5 °F 28.0 °F 68% 30.27 in 10.0 mi South 3.5 mph - N/A   Clear
9:53 AM 53.1 °F - 30.9 °F 43% 30.24 in 10.0 mi Variable 6.9 mph 18.4 mph N/A   Clear
10:53 AM 55.0 °F - 30.0 °F 38% 30.25 in 10.0 mi East 9.2 mph 24.2 mph N/A   Clear
11:53 AM 57.0 °F - 30.0 °F 36% 30.24 in 10.0 mi East 9.2 mph 21.9 mph N/A   Clear
12:53 PM 57.0 °F - 30.0 °F 36% 30.24 in 10.0 mi NE 15.0 mph 25.3 mph N/A   Clear
1:53 PM 57.9 °F - 30.0 °F 35% 30.24 in 10.0 mi ENE 10.4 mph 24.2 mph N/A   Clear
2:53 PM 59.0 °F - 28.9 °F 32% 30.21 in 10.0 mi NE 12.7 mph 23.0 mph N/A   Clear
3:53 PM 57.9 °F - 28.0 °F 32% 30.21 in 10.0 mi East 18.4 mph 24.2 mph N/A   Clear
4:53 PM 57.0 °F - 24.1 °F 28% 30.22 in 10.0 mi ENE 12.7 mph 19.6 mph N/A   Clear
5:53 PM 55.0 °F - 15.1 °F 21% 30.22 in 10.0 mi East 8.1 mph - N/A   Clear
6:53 PM 50.0 °F - 16.0 °F 26% 30.25 in 10.0 mi Variable 4.6 mph - N/A   Clear
7:53 PM 45.0 °F - 16.0 °F 31% 30.31 in 10.0 mi Calm Calm - N/A   Clear
8:53 PM 48.9 °F - 16.0 °F 27% 30.27 in 10.0 mi NE 9.2 mph - N/A   Clear
9:53 PM 44.1 °F - 16.0 °F 32% 30.25 in 10.0 mi Calm Calm - N/A   Clear
10:53 PM 43.0 °F 40.3 °F 14.0 °F 31% 30.25 in 10.0 mi Variable 4.6 mph - N/A   Clear
11:53 PM 50.0 °F - 12.0 °F 22% 30.24 in 10.0 mi Variable 4.6 mph - N/A   Clear